Simultaneous Nadir Overpasses (SNOs) Predictions

Prediction of SNOs between GOES-16 and LANDSAT-8 Satellite Orbit:

Table of predicted SNOs for the next 14.0 days since TLE Epoch: 6/8/2019
Index Date Time (GOES-16) GOES-16 Lat,Lon LANDSAT-8 Lat,Lon Distance(km) Time Diff (sec)
1 06/08/2019 15:12:22 0.00, -75.20 0.06, -75.41 23.61 80
2 06/10/2019 15:02:52 0.01, -75.21 -0.60, -72.46 313.56 80
3 06/11/2019 03:24:16 -0.01, -75.21 -0.53, -77.64 276.87 80
4 06/13/2019 03:09:26 -0.01, -75.22 0.13, -74.69 61.19 80
5 06/15/2019 02:57:15 -0.01, -75.25 0.73, -71.73 399.65 80
6 06/15/2019 15:21:11 0.01, -75.26 0.36, -76.89 185.53 80
7 06/17/2019 15:06:21 0.01, -75.28 -0.31, -73.94 153.53 80
8 06/18/2019 03:30:25 -0.01, -75.29 -0.81, -79.13 436.28 80
9 06/19/2019 14:54:10 0.00, -75.32 -0.91, -70.98 492.98 80
10 06/20/2019 03:18:14 -0.00, -75.32 -0.21, -76.17 96.64 80




NCC Satellite Simultaneous Nadir Overpasses (SNOs) Prediction Service
